Погода в Ряжске

Погода в Ряжске : погода сейчас, прогноз погоды и архив. Всё, что Вы хотите узнать о погоде в Ряжске!

Хотите узнать прогноз погоды в Ряжске? Тогда Вам сюда: Погода в Ряжске

Поиск расширенной информации на нашем сайте:

Полезная информация:

Другие новости

Новости СМИ2

Главная страница сайта

Новости сайта

03.07.2017

Напоминаем, что на нашем специализированном сайте Метеоцентр.Азия вы можете получить высокодетализированные автоматические прогнозы погоды по пунктам России, СНГ и мира в авиационном формате (включающие направление и скорость ветра, видимость, явления погоды, количество и форму облачности, нижнюю и верхнюю границу облачности).

Рекомендуем:

Погода в Ряжске - сегодня

Время (UTC), дата Ветер
(°,м/с) 
Видим.   Явления Облачность Т
(°С)
Тd
(°С)
f(%) Тe
(°С)
Pmin
(гПа)
dP
(гПа)
Po
(мм)
O2
(г/м3)
Тmin Tmax R s Состояние
почвы
03 16.07.19 тихо ()   10 км    8/0 средняя, верхняя 
[Ac trans|Ci sp]
+15.5 +11.6 78 +19  1010.5  747  282  +12.8         
06 16.07.19 160 (Ю) 10 км    9/0 верхняя 
[Ci sp]
+22.7 +9 42 +23  1010.3  0.2  747  276           
09 16.07.19 140 (ЮВ) 20000 м    9/4 1000 м верхняя 
[Cu med, cong|Ci sp]
+25.7 +8.4 33 +26  1009.6  -0.6  746  273           
12 16.07.19 100 (В) 20000 м    9/4 1000 м верхняя 
[Cu med, cong|Ci sp]
+26.3 +5.9 27 +26  1008.4  -1.2  745  273           
15 16.07.19 200 (Ю) 10 км    9/3 600 м кучево-дожд., средняя, верхняя 
[Cb calv|Ac trans|Ci sp]
+22.6 +11.5 49 +26  1008.9  0.4  746  275    +27.6       
18 16.07.19 тихо ()   10 км    10/3 1000 м средняя 
[Sc diur, vesp|Ac As]
+18.1 +13.8 76 +25  1009.4  0.3  746  279           
21 16.07.19 тихо ()   н/о    10/0 средняя 
[Ac As]
+16.3 +13.9 86 +23  1009.7  0.1  746  281           
00 17.07.19 240 (ЮЗ) 4000 м  дымка  10/3 600 м кучево-дожд., средняя 
[Cb calv|Ac As]
+15.8 +14.5 92 +25  1009.1  -0.5  746  281           
03 17.07.19 080 (В) 4000 м  дымка  10/3 600 м кучево-дожд., средняя 
[Cb calv|Ac As]
+16 +14.9 93 +26  1008.4  -0.7  745  280  +14.8         
06 17.07.19 080 (В) 10 км    10/5 600 м кучево-дожд., средняя 
[Cb calv|Ac As]
+18 +13.2 74 +25  1007.2  -1.2  744  279           
09 17.07.19 060 (СВ) 10 км  слаб. дождь  10/10 300 м 
[Frnb|Ns]
+17.5 +14.6 83 +26  1006.3  -0.8  744  279           
12 17.07.19 040 (СВ) 4000 м  слаб. дождь  10/10 300 м 
[Frnb|Ns]
+17.2 +16.2 94 +30  1005.5  -0.7  743  278           
15 17.07.19 360 (С) 4000 м  дымка{дождь}  9/6 1000 м средняя 
[Sc|Ac und]
+17.7 +16.5 93 +31  1004.5  -1  742  277    +18.9     
18 17.07.19 тихо ()   4000 м  дымка{дождь}  8/4 600 м кучево-дожд., средняя 
[Cb calv|Ac trans]
+15.9 +15.4 97 +26  1005  0.5  743  279           
21 17.07.19 тихо ()   0200 м  туман  ?/?  
+15.1 +14.9 99 +24  1004.8  -0.3  742  280           
00 18.07.19 тихо ()   0200 м  туман  ?/?  
+13 +12.8 99 +18  1004.7  -0.2  742  283           
03 18.07.19 тихо ()   0200 м  туман  ?/?  
+12.9 +12.8 99 +18  1005.6  0.8  743  283  +12.2         
06 18.07.19 190 (Ю) 10 км  {туман}  ясно 
+20.5 +13.9 66 +28  1005.6  0.4  743  276           
09 18.07.19 210 (ЮЗ) 10 км    8/6 1000 м кучево-дожд., средняя 
[Cb calv|Ac trans]
+24 +9.2 39 +24  1005.5  0.1  743  274           
12 18.07.19 200 (Ю) 10 км    8/6 1000 м средняя 
[Cu med, cong|Ac trans]
+24.8 +7 32 +25  1005.2  -0.3  743  273           
15 18.07.19 050 (СВ) 4000 м  гроза, ливневой дождь  9/5 600 м кучево-дожд., средняя, верхняя 
[Cb calv|Ac trans|Ci sp]
+16.8 +15.1 90 +27  1006.5  744  279    +26     
18 18.07.19 050 (СВ) 4000 м  дымка{гроза, ливн. осадки}  4/0 средняя, верхняя 
[Ac trans|Ci sp]
+14.8 +13.4 91 +22  1007.9  1.2  745  282           
21 18.07.19 160 (Ю) 4000 м  дымка  ясно 
+12.9 +12.5 97 +19  1008.5  0.5  745  284           
00 19.07.19 тихо ()   4000 м  дымка  ясно 
+10.9 +10.7 99 +13  1008.9  0.3  745  287           
03 19.07.19 180 (Ю) 4000 м  дымка  3/0 средняя, верхняя 
[Ac trans|Ci sp]
+12.5 +10.9 90 +16  1009.2  0.4  746  285  +10.8    0.0     
Время (UTC), дата Ветер
(°,м/с) 
Видим.   Явления Облачность Т
(°С)
Тd
(°С)
f(%) Тe
(°С)
Pmin
(гПа)
dP
(гПа)
Po
(мм)
O2
(г/м3)
Тmin Tmax R s Состояние
почвы

Для получения пояснительной информации подведите курсор к названию столбца.

ПОГОДА в Ряжске - архив

Всё, что Вы хотите узнать о погоде в Ряжске - удобно и подробно!

Выберите нужную дату (начиная с 1 января 2018* года) и нажмите кнопку "Найти".
Будут отображены архивные сводки погоды по пункту Ряжск, начиная с указанной даты.


Отображать данные в формате CSV (для использования в таблицах Excel)


Внимание! Наш архив погоды предназначен исключительно для личного некоммерческого использования в познавательных целях. Если Вам необходимы официальные справки о состоянии погоды (для производственных, юридических, коммерческих и т.п. целей), обращайтесь в органы Росгидромета.

*Примечание: данная дата относится к архиву по метеостанциям СССР (Россия, СНГ, Балтия).
Архив по метеостанциям Зарубежной Европы и Азии (кроме Китая) хранится 10 дней, по другим регионам земного шара (Китай, Африка, Америка, Австралия, Океания) - 1 день.

Ряжск - район местоположения метеостанции


Название, широта, долгота, высота метеостанции:
Ряжск 53.7°ш. 40.1°д. 127 м над ур. моря [Российская Федерация]

Дополнительная информация

В oтличие oт бoльшинства пoгoдных сайтoв мы публикуем пoдрoбную метеoинфoрмацию в детальнoм прoфессиoнальнoм фoрмате.

Характеристики температуры и влажнoсти вoздуха измеряются на высoте 2 м в тени вдали oт зданий и деревьев.
Скoрoсть ветра измеряется на высoте 10 м (на урoвне рoста челoвека скoрoсть ветра ниже в 1.5-2 раза). Если метеoстанция нахoдится в гoрoде или в лесу, тo скoрoсть ветра занижена на 2-4 м/с пo сравнению с oткрытым местoм. Скoрoсть ветра над акватoриями крупных рек и oзёр, а также на вершинах хoлмoв на 2-5 м/с выше, чем в oбычных услoвиях.
Атмoсфернoе давление в разных тoчках местнoсти мoжет значительнo oтличаться oт давления на метеoстанции, в зависимoсти oт услoвий рельефа (при пoдъёме на 10 м давление пoнижается примернo на 1 мм рт.ст.).